STARLINK-1151, 45081

Orbit data source: Space-Track

STARLINK-1151, 45081 is a payload satellite owned by SpaceX/Seattle (US) in LEO that was launched on Wed, 29 Jan 2020 UTC via an FALCON 9 launch vehicle from the Air Force Eastern Test Range (AFETR). Payload-class satellites include a variety of spacecraft equipped with specific instruments for various scientific and technological missions. These include communications satellites like Starlink; space stations such as the ISS; scientific satellites like the Hubble; Earth observation satellites from companies like Planet Labs, Umbra, and HawkEye 360; GPS; miniature CubeSats for education and research; and military/defense satellites.

Loading next visibility...
Identifier
45081, 2020-006AP
Orbit
LEO
Country
Flag of USUS
Related business
Manufacturer
SpaceX/Seattle
Mission
Operational Commercial Communications
Bus & Motor
STARLINK, Unknown motor
Mass
260 kg wet, ~248 kg dry
Launch date (UTC)
2020-01-29 (6 years ago)
Launch vehicle
FALCON 9
Launch site
Air Force Eastern Test Range (AFETR)
Object type
Payload
Rocket body
Debris
Shape & HBR
Box + 1 Pan, 10.1 m
Radar Cross Section
13.562 m², Large (>1 m²)

Expand to show TLE details & history
Last TLE update: 20 hours ago

TLE from 20 hours ago
0 STARLINK-1151
1 45081U 20006AP  25302.53343524 -.00002446  00000-0 -14540-3 0  9992
2 45081  53.0528 135.4771 0001505  91.2804 268.8357 15.06389343316973
Epoch: 2025-10-29T12:48Z
TLE epoch observation values (Epoch: 2025-10-29T12:48:08.804Z)
Latitude
-0.00006°
Longitude
-94.66484°
Altitude
548.145 km
Speed
7.589 km/s
True Right ascension
09h 01m 54s
True Declination
0° 00' 00"
Sunlit
Object was in daylight at epoch
Visualization orbit readout
Latitude
Unknown
Longitude
Unknown
Altitude
Unknown
Speed
Unknown
Apparent Right ascension
Unknown
Apparent Declination
Unknown
Sunlit
N/A
Visualization observer readout
Local Sidereal Time
03:58:17
Azimuth
Unknown
Elevation
Unknown
Doppler factor
Unknown
Orbital elements
Apogee altitude
548.558 km
Perigee altitude
546.473 km
Semi-major axis
6,925.652 km
Eccentricity
0.00015
Inclination
53.0528°
RAAN
135.4771°
Arg. of periapsis
91.2804°
True anomaly
268.81846°
Mean anomaly
268.8357°
Eccentric anomaly
268.82708°
Mean motion
3.76576 °/min
Orbital period
95.6 mins
BSTAR
-0.0001454
Loading maneuver chart data...
Computing Atmospheric mass density...
Loading historical data...
Loading historical data...
Loading historical data...
Loading historical data...
Loading historical data...
Loading historical data...
Loading historical data...

Documentation

Showing up to 5 results
|